S-NET D (43186 NORAD) Tracking and Keplerian Element Data

This shows tracking and keplerian element data for the satellite.

Feedback or suggestion? Click here.




ElementValue
Catalog43186
NameS-NET D
Epoch Orbit26231
Epoch Day324.71557149
Epoch Year2022
RAAN227.4032
Inclination97.6463
Eccentricity0.0011059
Argument of Perigee126.8589
Mean Anonmoly233.3649
Mean Motion14.98566941
Decay Rate1.411E-05
L11 43186U 18014G 22324.71557149 .00001411 00000+0 12250-3 0 9997
L22 43186 97.6463 227.4032 0011059 126.8589 233.3649 14.98566941262311



Live tracking and technical data element details for S-NET D (NORAD 43186). S-NET D can be tracked NOW for your location showing map with azimuth and elevation plus other details from your city location.







IsCatalogInMostPopularTable: catalog: 43186, numindb: 651
Update: records affected: 1



GetName: 43186 S-NET D

Hit Count: updated at: Mon, 28 Nov 2022 04:17:32 GMT